Back to catalog

COSMOS 1275 DEB

AlivePO
NORAD 14627·DEBRIS·🇷🇺 Russia

Launched Jun 4, 1981 from Plesetsk Cosmodrome

Loading…

Next Passes (next 24 hours)

TLE

FreshSource: Space-Track

Epoch: Sep 13, 2026, 16:32 UTC

1 14627U 81053JQ  26256.68906771  .00001088  00000-0  62637-3 0  9996
2 14627  82.7841 334.8810 0035356 106.1150  46.0684 14.08078656173885

Track COSMOS 1275 DEB in real time with AllMySat

Download on the App Store